[[{"header":{"parameterUnit":"m.s-1","parameterCategory":1,"la1":30.2991,"la2":30.254,"lo1":-89.0895,"lo2":-89.0444,"dy":0.0017,"dx":0.0017,"nx":28,"ny":28,"refTime":"2023-07-19T21:00:00:Z","depth":0,"parameterNumber":2,"parameterNumberName":"U-component_of_WINDS"},"data":[0,0,0,0,0,0,0,0,0,0,0,0,0,0,0,0,0,0,0,0,0,0,0,0,0,0,0,0,0,0,0,0,0,0,0,0,0,0,0,0,0,0,0,0,0,0,0,0,0,0,0,0,0,0,0,0,0,0,2.7654,2.7654,0,2.7679,2.768,2.768,2.7692,2.7692,2.7692,2.7692,2.7718,2.7719,2.7719,0,0,0,0,0,0,0,0,0,0,0,0,0,2.7615,2.7616,2.7654,2.7654,2.7654,2.7679,2.768,2.768,2.7692,2.7692,2.7692,2.7692,2.7718,2.7719,2.7719,0,0,0,0,0,0,0,0,0,0,0,0,0,2.7636,2.7616,2.7653,2.7663,2.7664,2.7679,2.768,2.768,2.7692,2.7692,2.7692,2.7691,2.7717,2.7718,2.7719,2.7727,0,0,2.7723,2.7723,0,0,0,0,0,0,0,0,2.7634,2.7637,2.7661,2.7662,2.7664,2.7682,2.7676,2.7696,2.7692,2.7681,2.7692,2.7691,2.7706,2.7708,2.7713,2.7728,2.7729,2.7723,2.7724,2.7724,2.7724,0,0,0,0,0,0,0,2.7633,2.7636,2.7664,2.7662,2.7663,2.7666,2.7669,2.768,2.7693,2.7682,2.7683,2.7686,2.7707,2.7712,2.7714,2.773,2.7723,2.7724,2.7725,2.7725,2.7753,2.7753,0,0,0,0,0,0,2.763,2.7635,2.7663,2.7664,2.7649,2.7667,2.767,2.7676,2.7693,2.7696,2.7686,2.7686,2.771,2.7712,2.7715,2.7725,2.7724,2.7725,2.7726,2.7753,2.7753,2.7753,0,0,0,0,0,0,2.7629,2.7632,2.7662,2.765,2.7654,2.7668,2.7674,2.7677,2.7682,2.7696,2.7699,2.7689,2.771,2.7713,2.7724,2.7726,2.7726,2.7727,2.7753,2.7753,2.7753,2.7745,0,0,0,0,0,0,2.7628,2.7632,2.7635,2.765,2.7654,2.767,2.7675,2.7677,2.7684,2.7685,2.7699,2.7702,2.771,2.7722,2.7725,2.7727,2.7727,2.7753,2.7753,2.7753,2.7745,2.7745,2.7745,0,0,0,0,0,2.7627,2.7631,2.7635,2.7638,2.7658,2.7671,2.7673,2.7683,2.7684,2.7687,2.7696,2.7701,2.7725,2.7723,2.7726,2.7729,2.7753,2.7753,2.7753,2.7745,2.7745,2.7745,0,0,0,0,0,0,2.7616,2.7633,2.7637,2.7647,2.7657,2.7672,2.7677,2.7682,2.7692,2.7692,2.7704,2.7707,2.7717,2.7724,2.7722,2.7738,2.7739,2.774,2.7733,2.7732,2.7732,2.773,2.7728,0,0,0,0,0,2.7615,2.7623,2.7638,2.7645,2.765,2.7662,2.7668,2.7675,2.7686,2.769,2.77,2.7711,2.7721,2.7727,2.7737,2.7746,2.775,2.775,2.775,2.7749,2.775,2.7756,2.7756,2.7754,2.7754,2.7754,0,0,2.7612,2.7623,2.7627,2.7643,2.7652,2.7661,2.7666,2.7675,2.7682,2.7691,2.7702,2.771,2.7723,2.7733,2.7738,2.774,2.7752,2.775,2.7749,2.775,2.7756,2.7757,2.7757,2.7754,2.7754,2.7754,0,0,2.7612,2.7621,2.7628,2.7637,2.765,2.7658,2.766,2.7675,2.768,2.7691,2.7699,2.7707,2.7724,2.7733,2.774,2.7744,2.7749,2.7747,2.7745,2.7751,2.7752,2.7752,2.7754,2.7754,2.7748,2.7747,2.7747,0,2.7607,2.7621,2.7631,2.764,2.7647,2.7656,2.7664,2.7672,2.7688,2.7692,2.7694,2.7715,2.7724,2.7737,2.7738,2.7743,2.7746,2.7745,2.7751,2.7751,2.7751,2.7753,2.7754,2.7747,2.7747,2.7747,2.7747,0,2.7615,2.7624,2.7628,2.7643,2.7651,2.7659,2.7671,2.7677,2.7683,2.7692,2.7703,2.7715,2.7727,2.7731,2.7737,2.7745,2.7745,2.7748,2.775,2.7751,2.7753,2.7754,2.7747,2.7747,2.7747,2.7747,0,0,2.7608,2.7629,2.7631,2.7638,2.7654,2.7661,2.767,2.7682,2.7688,2.7699,2.7707,2.7721,2.7724,2.7732,2.7739,2.7744,2.7747,2.7747,2.7747,2.7747,2.7757,2.7755,2.7755,2.7751,2.7751,2.7751,2.7756,0,2.761,2.7627,2.7637,2.7649,2.7658,2.7667,2.7675,2.7686,2.7694,2.7703,2.7712,2.7722,2.7726,2.773,2.7736,2.7746,2.775,2.7745,2.7759,2.7759,2.7755,2.7757,2.7754,2.7758,2.7757,2.7757,2.7757,0,2.7615,2.7626,2.7639,2.7654,2.7659,2.7665,2.7678,2.7686,2.7699,2.7704,2.7713,2.7721,2.7731,2.7732,2.7746,2.7743,2.7749,2.7755,2.7755,2.7757,2.7758,2.7758,2.776,2.776,2.7759,2.7759,2.7758,0,2.7609,2.7627,2.7638,2.7644,2.7661,2.7666,2.7674,2.7686,2.7693,2.7704,2.7709,2.7721,2.7728,2.7737,2.7748,2.7748,2.7761,2.7763,2.7766,2.7766,2.7769,2.7768,2.7771,2.7772,2.7772,2.7772,2.7772,0,2.7611,2.7619,2.7635,2.7642,2.7651,2.7663,2.7671,2.768,2.7691,2.7699,2.7708,2.7716,2.773,2.7739,2.7747,2.7758,2.7761,2.7766,2.7768,2.7765,2.7765,2.7769,2.7769,2.7773,2.7772,2.7772,2.7772,0,2.7606,2.7617,2.7629,2.7646,2.765,2.7656,2.767,2.7677,2.7686,2.7696,2.77,2.7713,2.7725,2.7737,2.7752,2.7758,2.7769,2.7772,2.7765,2.7766,2.7768,2.7768,2.7774,2.7776,2.7776,2.7776,2.7776,0,2.7606,2.7613,2.763,2.7636,2.7644,2.7654,2.7661,2.7673,2.768,2.7696,2.7701,2.7713,2.7724,2.7742,2.7753,2.7766,2.7769,2.777,2.7771,2.7768,2.7769,2.7769,2.777,2.777,2.777,2.777,2.777,0,2.7606,2.7611,2.7622,2.7634,2.7643,2.7653,2.7664,2.7669,2.7683,2.7691,2.7703,2.7711,2.7728,2.774,2.7754,2.7762,2.7768,2.777,2.7771,2.7768,2.7764,2.7766,2.7764,2.7769,2.7769,2.7769,2.7769,2.7769,2.7604,2.761,2.7623,2.7635,2.7644,2.7654,2.7661,2.7671,2.7682,2.7696,2.7703,2.7715,2.7728,2.7747,2.7755,2.7765,2.7767,2.7768,2.7769,2.7769,2.7769,2.7762,2.7767,2.7768,2.7768,2.7768,2.7768,0,2.7604,2.7613,2.7623,2.7638,2.7648,2.7653,2.7665,2.7673,2.7684,2.7695,2.7705,2.772,2.7732,2.7745,2.7758,2.7763,2.7767,2.7766,2.7766,2.7768,2.7767,2.7764,2.7764,2.7764,2.7764,2.7764,2.7764,2.7764,2.7605,2.7616,2.7623,2.7639,2.7648,2.7661,2.7667,2.7677,2.7686,2.7702,2.7712,2.772,2.7733,2.7747,2.7758,2.7762,2.7766,2.7765,2.7769,2.7768,2.7768,2.7768,2.7766,2.7766,2.7766,2.777,2.777,2.777]},{"header":{"parameterUnit":"m.s-1","parameterCategory":1,"la1":30.2991,"la2":30.254,"lo1":-89.0895,"lo2":-89.0444,"dy":0.0017,"dx":0.0017,"nx":28,"ny":28,"refTime":"2023-07-19T21:00:00:Z","depth":0,"parameterNumber":3,"parameterNumberName":"V-component_of_WINDS"},"data":[0,0,0,0,0,0,0,0,0,0,0,0,0,0,0,0,0,0,0,0,0,0,0,0,0,0,0,0,0,0,0,0,0,0,0,0,0,0,0,0,0,0,0,0,0,0,0,0,0,0,0,0,0,0,0,0,0,0,0.1103,0.1103,0,0.1107,0.1107,0.1107,0.1118,0.1118,0.1118,0.1118,0.1122,0.1122,0.1122,0,0,0,0,0,0,0,0,0,0,0,0,0,0.1107,0.1107,0.1103,0.1103,0.1103,0.1106,0.1107,0.1107,0.1118,0.1118,0.1118,0.1118,0.1122,0.1122,0.1122,0,0,0,0,0,0,0,0,0,0,0,0,0,0.1107,0.1107,0.1103,0.1109,0.111,0.1106,0.1107,0.1107,0.1117,0.1118,0.1118,0.1119,0.1122,0.1122,0.1122,0.1113,0,0,0.1121,0.1121,0,0,0,0,0,0,0,0,0.1107,0.1107,0.1108,0.1109,0.1109,0.1112,0.1109,0.1109,0.1117,0.1115,0.1118,0.1119,0.1118,0.1119,0.1118,0.1113,0.1114,0.1121,0.1121,0.1121,0.1121,0,0,0,0,0,0,0,0.1107,0.1107,0.1105,0.1108,0.1109,0.1112,0.1112,0.1109,0.1114,0.1115,0.1116,0.1116,0.1119,0.1119,0.1119,0.1114,0.1121,0.1121,0.1121,0.1121,0.1101,0.11,0,0,0,0,0,0,0.1106,0.1107,0.1105,0.1105,0.1109,0.1111,0.1112,0.1111,0.1115,0.1115,0.1116,0.1116,0.1119,0.1119,0.1119,0.1108,0.1121,0.1121,0.1121,0.1101,0.1101,0.11,0,0,0,0,0,0,0.1106,0.1106,0.1104,0.1106,0.1106,0.1111,0.111,0.1111,0.111,0.1115,0.1116,0.1114,0.1119,0.1119,0.1114,0.1108,0.1121,0.1121,0.1102,0.1101,0.11,0.1087,0,0,0,0,0,0,0.1106,0.1106,0.1103,0.1106,0.1106,0.11,0.1109,0.1111,0.111,0.1111,0.1114,0.1115,0.1119,0.1114,0.1114,0.1108,0.112,0.1102,0.1101,0.11,0.1088,0.1086,0.1084,0,0,0,0,0,0.1106,0.1099,0.1102,0.1102,0.1102,0.1099,0.1099,0.1104,0.1109,0.1106,0.1109,0.1115,0.1109,0.1114,0.1114,0.1108,0.1102,0.1101,0.1101,0.1089,0.1087,0.1085,0,0,0,0,0,0,0.1096,0.11,0.1103,0.1097,0.1098,0.1101,0.1097,0.1102,0.1101,0.1103,0.1109,0.111,0.1104,0.1105,0.111,0.1099,0.1107,0.1106,0.1098,0.1096,0.1094,0.1093,0.112,0,0,0,0,0,0.1093,0.109,0.1094,0.1088,0.1088,0.1093,0.1092,0.1095,0.1096,0.1097,0.1099,0.11,0.1099,0.1097,0.1096,0.1089,0.1089,0.1084,0.1082,0.1081,0.108,0.1075,0.1073,0.1097,0.1097,0.1097,0,0,0.1086,0.1088,0.1086,0.1086,0.1087,0.1084,0.1093,0.109,0.1087,0.1096,0.1092,0.1094,0.1095,0.1088,0.1086,0.109,0.1073,0.108,0.1078,0.1078,0.1074,0.1071,0.1069,0.1096,0.1096,0.1097,0,0,0.1073,0.1074,0.1069,0.107,0.1071,0.1074,0.1072,0.1075,0.1076,0.1072,0.1078,0.1076,0.1073,0.1073,0.1073,0.1059,0.1064,0.1058,0.1049,0.1044,0.1042,0.104,0.1034,0.1032,0.1057,0.1057,0.1057,0,0.1065,0.106,0.1066,0.1062,0.1061,0.1069,0.1063,0.1063,0.1064,0.1063,0.1068,0.1064,0.1066,0.1059,0.1055,0.1055,0.1053,0.1058,0.1042,0.104,0.1039,0.1033,0.1031,0.1057,0.1057,0.1057,0.1057,0,0.105,0.1047,0.1042,0.1042,0.1041,0.1036,0.1041,0.1039,0.1043,0.1045,0.104,0.1042,0.1041,0.1039,0.1043,0.1033,0.1035,0.1041,0.1048,0.1035,0.103,0.1028,0.1055,0.1056,0.1056,0.1056,0,0,0.103,0.1032,0.1031,0.103,0.1032,0.1029,0.1025,0.1023,0.1021,0.1021,0.1017,0.1014,0.1019,0.1019,0.1023,0.1018,0.1006,0.1024,0.1024,0.102,0.0993,0.0989,0.0986,0.1009,0.1009,0.1009,0.0993,0,0.1017,0.1009,0.1013,0.1004,0.1001,0.1008,0.1004,0.1004,0.1006,0.1003,0.1006,0.1003,0.101,0.101,0.1006,0.1008,0.1001,0.101,0.1005,0.1005,0.1004,0.0984,0.0979,0.0964,0.0991,0.0991,0.0991,0,0.1,0.0999,0.0989,0.099,0.0989,0.0985,0.0984,0.0981,0.0982,0.0983,0.0983,0.0987,0.0983,0.0991,0.0984,0.099,0.0988,0.0989,0.0989,0.0988,0.0997,0.0982,0.096,0.0957,0.0988,0.0988,0.0988,0,0.0985,0.0981,0.0975,0.0974,0.0976,0.0973,0.0973,0.0974,0.0972,0.0971,0.097,0.0969,0.0968,0.0966,0.097,0.0976,0.0962,0.0971,0.0963,0.0963,0.096,0.096,0.0936,0.096,0.096,0.096,0.096,0,0.0969,0.0963,0.0968,0.0964,0.0957,0.0962,0.0955,0.0957,0.0957,0.0953,0.0959,0.0956,0.0961,0.0958,0.0962,0.0955,0.0955,0.0956,0.0956,0.0955,0.0954,0.0953,0.0954,0.0959,0.096,0.096,0.096,0,0.0952,0.0955,0.0948,0.095,0.095,0.0945,0.0946,0.0942,0.0945,0.094,0.0939,0.0942,0.0939,0.0943,0.094,0.0942,0.0932,0.0935,0.0932,0.0933,0.0924,0.0925,0.0899,0.0895,0.0922,0.0922,0.0921,0,0.0941,0.0936,0.0937,0.0935,0.0935,0.0931,0.0929,0.0934,0.0932,0.0931,0.0927,0.0924,0.0922,0.0916,0.0918,0.0916,0.0918,0.0909,0.0918,0.0916,0.0917,0.0917,0.0916,0.0907,0.0907,0.0907,0.0907,0,0.0921,0.0923,0.092,0.0917,0.0915,0.0913,0.0912,0.091,0.0915,0.0912,0.0908,0.0906,0.0903,0.0899,0.0897,0.0898,0.0903,0.0904,0.0902,0.09,0.0898,0.0898,0.0927,0.0904,0.0905,0.0905,0.0905,0.0905,0.0906,0.0902,0.0901,0.0898,0.0897,0.0896,0.0892,0.0893,0.089,0.0887,0.089,0.0886,0.0885,0.0883,0.0883,0.0879,0.0883,0.088,0.0879,0.0878,0.0877,0.0899,0.0879,0.0879,0.0879,0.0879,0.0879,0,0.0886,0.0886,0.0883,0.088,0.0877,0.0882,0.0881,0.0878,0.0873,0.0872,0.087,0.0865,0.0862,0.0863,0.086,0.0857,0.0859,0.0856,0.0856,0.0856,0.0874,0.0876,0.0854,0.0854,0.0854,0.0854,0.0854,0.0854,0.0875,0.0868,0.0869,0.0862,0.0862,0.0856,0.0855,0.0854,0.0853,0.0847,0.0844,0.0845,0.0845,0.0842,0.0839,0.084,0.0838,0.0834,0.0835,0.0852,0.0855,0.0857,0.0858,0.0834,0.0834,0.0817,0.0817,0.0817]}]]